This is the latest recevied weather packets stored in our database for station/object FW0690. If no packets are shown the sender has not sent any weather packets the latest 10 day(s).
| Time | Temp. | Humidity | Pressure | Rain* | Wind** | Luminosity | Snow |
|---|---|---|---|---|---|---|---|
| 1777380269 | 27.22° C | 20% | 1014.9 hPa | - | - | 88 W/m² | - |
| 1777379909 | 26.67° C | 20% | 1015 hPa | - | - | 64 W/m² | - |
| 1777379549 | 25.56° C | 21% | 1015.1 hPa | - | - | 63 W/m² | - |
| 1777379189 | 25.56° C | 21% | 1015.2 hPa | - | - | 59 W/m² | - |
| 1777378829 | 24.44° C | 21% | 1015.2 hPa | - | - | 61 W/m² | - |
| 1777378469 | 23.89° C | 21% | 1015.3 hPa | - | - | 55 W/m² | - |
| 1777378109 | 23.89° C | 21% | 1015.4 hPa | - | - | 51 W/m² | - |
| 1777377749 | 24.44° C | 21% | 1015.4 hPa | - | - | 52 W/m² | - |
| 1777377389 | 24.44° C | 21% | 1015.5 hPa | - | - | 55 W/m² | - |
| 1777377029 | 25° C | 21% | 1015.5 hPa | - | - | 57 W/m² | - |
| 1777376669 | 24.44° C | 21% | 1015.5 hPa | - | - | 58 W/m² | - |
| 1777376309 | 25° C | 21% | 1015.5 hPa | - | - | 51 W/m² | - |
| 1777375949 | 25.56° C | 21% | 1015.6 hPa | - | - | 50 W/m² | - |
| 1777375589 | 25.56° C | 21% | 1015.6 hPa | - | - | 50 W/m² | - |
| 1777375229 | 25° C | 21% | 1015.6 hPa | - | - | 52 W/m² | - |
| 1777374869 | 23.89° C | 21% | 1015.7 hPa | - | - | 51 W/m² | - |
| 1777374509 | 25° C | 21% | 1015.8 hPa | - | - | 47 W/m² | - |
| 1777374149 | 25° C | 21% | 1015.8 hPa | - | - | 49 W/m² | - |
| 1777373789 | 25° C | 21% | 1015.9 hPa | - | - | 45 W/m² | - |
| 1777373429 | 25° C | 21% | 1015.9 hPa | - | - | 41 W/m² | - |
| 1777373069 | 25.56° C | 21% | 1015.9 hPa | - | - | 37 W/m² | - |
| 1777372709 | 25° C | 21% | 1016 hPa | - | - | 35 W/m² | - |
| 1777372349 | 26.11° C | 22% | 1016 hPa | - | - | 34 W/m² | - |
| 1777371989 | 25.56° C | 22% | 1016.1 hPa | - | - | 32 W/m² | - |
| 1777371629 | 25° C | 22% | 1016.1 hPa | - | - | 31 W/m² | - |
* Rain since midnight (hover to see other rain measurements)
** Current wind speed in m/s (hover to see current wind gust speed)